Tracking 35331 objects as of 15-Sep-2026
HD Live streaming from Space Station
objects crossing your sky now

STARLINK-30370

Track STARLINK-30370 now!
10-day predictions
STARLINK-30370 is classified as:


NORAD ID: 57751
Int'l Code: 2023-131V
Launch date: September 1, 2023
Source: United States (US)
Launch site: AIR FORCE EASTERN TEST RANGE (AFETR)
Your satellite tracking list
Your tracking list is empty




NASA's NSSDC Master Catalog

Two Line Element Set (TLE):
1 57751U 23131V   26258.33335648 -.00643057  00000-0 -21386-1 0  9991
2 57751  42.9998 160.2408 0001191 259.4067 268.6990 15.32757583  5847
Source of the keplerian elements: AFSPC